Location: Spring Creek
(38.2870°N, 100.2160°W)
Time: 00:27:20
(UTC+00:00)

Cosmos 2297 Rocket - Pass Details

Date: 01 October 2021
Orbit: 841 x 842 km, 71.0° (Epoch: 24 October)

Event Time Altitude Azimuth Distance (km) Brightness Sun altitude
Rises 02:23:11 0° 348° (NNW) 3,403 5.7 -23.9°
Reaches altitude 10° 02:26:06 10° 2° (N) 2,465 4.8 -24.4°
Enters shadow 02:29:09 22° 32° (NNE) 1,761 3.7 -25.0°
